1508986800.29,34232,12.31,73998.5,-0.55,-1.87,-1.79,0,*65
1508986801.53,34233,12.31,73998.5,-0.55,-1.87,-1.79,0,*64
1508986802.79,34234,12.25,74006.5,-0.55,-2.11,-2.11,0,*62
1508986803.98,34235,12.25,74002.3,-0.57,-2.15,-2.15,0,*61
1508986805.2,34236,12.31,73998.8,-0.59,-2.79,-2.79,0,*6C
1508986806.42,34237,12.31,73996.3,-0.59,-2.95,-2.91,0,*69
1508986807.63,34238,12.31,73986.0,-0.59,-2.35,-2.35,0,*62
1508986808.9,34239,12.25,73990.3,-0.59,-1.91,-1.91,0,*63
1508986810.09,34240,12.25,74002.5,-0.61,-1.59,-1.51,0,*6E
1508986811.33,34241,12.25,74012.5,-0.61,-1.99,-1.99,0,*67
1508986812.55,34242,12.31,74018.8,-0.63,-2.35,-2.23,0,*61
1508986813.74,34243,12.31,74018.0,-0.61,-3.35,-3.39,0,*69
1508986814.99,34244,12.31,74016.0,-0.63,-3.75,-3.63,0,*67
1508986816.2,34245,12.31,74020.8,-0.67,-3.15,-3.03,0,*62
1508986817.45,34246,12.31,74004.5,-0.69,-2.71,-2.71,0,*68
1508986818.69,34247,12.31,74000.8,-0.69,-2.71,-2.67,0,*6E
1508986819.94,34248,12.25,74010.8,-0.69,-2.47,-2.47,0,*66
1508986821.19,34249,12.31,74010.0,-0.71,-2.67,-2.59,0,*63
1508986822.4,34250,12.25,73994.5,-0.73,-2.59,-2.43,0,*6F
1508986823.64,34251,12.25,73992.0,-0.73,-2.75,-2.75,0,*65
1508986824.83,34252,12.31,73990.5,-0.73,-2.39,-2.31,0,*6E
1508986826.01,34253,12.25,73980.0,-0.73,-2.23,-2.23,0,*67
1508986827.23,34254,12.25,73980.5,-0.71,-1.71,-1.79,0,*6A
1508986828.42,34255,12.31,73986.8,-0.73,-1.63,-1.51,0,*60
1508986829.6,34256,12.31,73988.3,-0.73,-1.63,-1.63,0,*62
1508986830.81,34257,12.31,73996.0,-0.71,-1.59,-1.55,0,*6D
1508986832.08,34258,12.25,73998.5,-0.71,-1.47,-1.47,0,*6E
1508986833.32,34259,12.31,74012.0,-0.69,-1.43,-1.47,0,*62
1508986834.53,34260,12.25,74008.5,-0.67,-1.55,-1.55,0,*62
1508986835.71,34261,12.25,73984.8,-0.69,-1.55,-1.59,0,*61
1508986836.98,34262,12.31,73992.0,-0.67,-1.43,-1.39,0,*6D
1508986838.23,34263,12.31,73988.5,-0.69,-1.47,-1.43,0,*6B
1508986839.49,34264,12.31,73990.8,-0.67,-1.35,-1.39,0,*6A
1508986840.77,34265,12.31,73962.5,-0.67,-1.39,-1.39,0,*67
1508986842.04,34266,12.25,73980.8,-0.67,-1.39,-1.39,0,*64
1508986843.31,34267,12.31,73978.5,-0.67,-1.43,-1.39,0,*68
1508986844.53,34268,12.31,73982.0,-0.63,-1.21,-1.21,0,*6E
1508986845.79,34269,12.31,73968.8,-0.63,-1.09,-1.13,0,*64
1508986846.98,34270,12.31,73984.5,-0.61,-1.25,-1.25,0,*65
1508986848.19,34271,12.31,74004.8,-0.63,-1.33,-1.25,0,*61
1508986849.43,34272,12.31,74006.3,-0.61,-1.35,-1.39,0,*6B
1508986850.64,34273,12.31,73998.3,-0.61,-1.51,-1.47,0,*61
1508986851.84,34274,12.31,73994.5,-0.61,-1.71,-1.71,0,*61
1508986853.05,34275,12.31,73994.8,-0.63,-1.59,-1.51,0,*6A
1508986854.3,34276,12.25,73984.5,-0.61,-1.47,-1.39,0,*6A
1508986855.48,34277,12.31,73980.8,-0.61,-1.51,-1.59,0,*6A
1508986856.69,34278,12.31,73992.0,-0.61,-1.51,-1.47,0,*6A
1508986857.9,34279,12.31,74010.8,-0.61,-1.51,-1.47,0,*6B
1508986859.11,34280,12.31,74002.8,-0.61,-1.51,-1.47,0,*6D
1508986860.32,34281,12.25,73980.5,-0.63,-1.59,-1.51,0,*61
1508986861.5,34282,12.31,73986.3,-0.61,-1.51,-1.59,0,*60
1508986862.72,34283,12.25,73986.5,-0.61,-1.83,-1.71,0,*64
1508986863.92,34284,12.31,73990.8,-0.61,-1.71,-1.63,0,*6D
1508986865.16,34285,12.31,74006.3,-0.61,-1.83,-1.83,0,*6F
1508986866.37,34286,12.31,74002.0,-0.63,-1.59,-1.59,0,*6E
1508986867.61,34287,12.31,73988.0,-0.61,-1.47,-1.39,0,*64
1508986868.83,34288,12.25,73994.8,-0.61,-1.47,-1.51,0,*65
1508986870.01,34289,12.31,73992.8,-0.61,-1.63,-1.59,0,*6A
1508986871.28,34290,12.31,74006.8,-0.63,-1.39,-1.39,0,*69
1508986872.53,34291,12.31,74000.8,-0.61,-1.47,-1.47,0,*6A
1508986873.77,34292,12.31,74010.8,-0.61,-1.47,-1.39,0,*60
1508986875.04,34293,12.31,74018.5,-0.63,-1.39,-1.35,0,*66
1508986876.28,34294,12.31,74008.8,-0.61,-1.35,-1.39,0,*63
1508986877.5,34295,12.31,74008.8,-0.61,-1.51,-1.47,0,*69
1508986878.68,34296,12.31,74008.0,-0.61,-1.59,-1.59,0,*6D
1508986879.87,34297,12.31,73998.5,-0.61,-1.71,-1.71,0,*6C
1508986881.05,34298,12.31,74006.8,-0.61,-1.59,-1.59,0,*63
1508986882.27,34299,12.31,74006.3,-0.61,-1.51,-1.47,0,*65
1508986883.51,34300,12.31,73998.5,-0.61,-1.39,-1.47,0,*6A
1508986884.76,34301,12.31,73990.5,-0.61,-1.39,-1.47,0,*6B
1508986886.0,34302,12.31,74008.5,-0.61,-1.39,-1.39,0,*61
1508986887.24,34303,12.31,73998.8,-0.59,-1.35,-1.33,0,*6D
1508986888.49,34304,12.31,74014.5,-0.57,-1.43,-1.35,0,*63
1508986889.73,34305,12.31,73996.5,-0.59,-1.55,-1.47,0,*6E
1508986890.94,34306,12.31,74008.3,-0.59,-1.59,-1.55,0,*62
1508986892.21,34307,12.31,74014.3,-0.59,-1.47,-1.47,0,*6F
1508986893.49,34308,12.31,74010.5,-0.59,-1.43,-1.47,0,*64
1508986894.7,34309,12.31,74004.5,-0.57,-1.79,-1.83,0,*6A
1508986895.91,34310,12.31,74022.5,-0.59,-1.59,-1.55,0,*65
1508986897.12,34311,12.31,74022.0,-0.59,-1.59,-1.55,0,*64
1508986898.34,34312,12.31,73984.0,-0.59,-1.55,-1.55,0,*6B
1508986899.55,34313,12.31,73998.3,-0.59,-1.59,-1.55,0,*66
1508986900.82,34314,12.31,74002.8,-0.59,-1.47,-1.47,0,*6D
1508986902.09,34315,12.31,74006.5,-0.59,-1.47,-1.47,0,*6C
1508986903.3,34316,12.31,74006.8,-0.59,-1.59,-1.59,0,*6F
1508986904.55,34317,12.31,74006.0,-0.59,-1.55,-1.47,0,*6D
1508986905.82,34318,12.25,73998.0,-0.59,-1.47,-1.47,0,*61
1508986907.03,34319,12.31,73998.3,-0.59,-1.59,-1.55,0,*6C
1508986908.25,34320,12.31,73994.0,-0.59,-1.59,-1.67,0,*67
1508986909.47,34321,12.31,74000.3,-0.59,-1.59,-1.67,0,*66
1508986910.71,34322,12.31,74000.5,-0.61,-1.47,-1.47,0,*63
1508986911.89,34323,12.25,73988.8,-0.61,-1.51,-1.51,0,*62
1508986913.16,34324,12.25,73982.5,-0.59,-1.47,-1.47,0,*6E
1508986914.41,34325,12.31,74004.3,-0.61,-1.43,-1.39,0,*69
1508986915.66,34326,12.25,73982.3,-0.59,-1.33,-1.35,0,*6A
1508986916.93,34327,12.25,73984.3,-0.59,-1.35,-1.35,0,*6D
1508986918.14,34328,12.25,73992.8,-0.57,-1.35,-1.29,0,*61
1508986919.36,34329,12.31,73992.8,-0.59,-1.33,-1.29,0,*68
1508986920.6,34330,12.31,73972.3,-0.59,-1.35,-1.33,0,*6D
1508986921.87,34331,12.25,73978.5,-0.59,-1.35,-1.35,0,*6A
1508986923.14,34332,12.31,73984.5,-0.59,-1.35,-1.35,0,*69
1508986924.41,34333,12.31,73990.8,-0.59,-1.43,-1.47,0,*6C
1508986925.65,34334,12.31,73976.8,-0.59,-1.55,-1.43,0,*68
1508986926.92,34335,12.25,73974.0,-0.59,-1.35,-1.35,0,*6E
1508986928.11,34336,12.25,73970.8,-0.57,-1.29,-1.33,0,*68
1508986929.34,34337,12.31,73986.5,-0.59,-1.17,-1.21,0,*69
1508986930.53,34338,12.25,73980.5,-0.57,-1.33,-1.33,0,*6D
1508986931.72,34339,12.31,73968.5,-0.57,-1.67,-1.67,0,*6C
1508986932.9,34340,12.31,73992.3,-0.57,-1.59,-1.59,0,*62
1508986934.1,34341,12.25,73974.5,-0.57,-1.67,-1.67,0,*63
1508986935.28,34342,12.31,73958.3,-0.57,-1.79,-1.79,0,*60
1508986936.55,34343,12.31,73952.0,-0.59,-1.95,-2.03,0,*63
1508986937.79,34344,12.31,73962.8,-0.57,-1.83,-1.83,0,*66
1508986939.02,34345,12.31,73960.0,-0.59,-1.79,-1.71,0,*61
1508986940.24,34346,12.25,73958.5,-0.59,-1.79,-1.71,0,*62
1508986941.51,34347,12.31,73976.3,-0.59,-1.83,-1.83,0,*6B
1508986942.72,34348,12.31,73990.5,-0.59,-1.55,-1.55,0,*64
1508986943.92,34349,12.31,73996.5,-0.61,-1.25,-1.21,0,*6A
1508986945.15,34350,12.25,73986.0,-0.61,-1.13,-1.13,0,*66
1508986946.38,34351,12.31,73994.5,-0.59,-1.17,-1.21,0,*69
1508986947.6,34352,12.25,74006.3,-0.59,-1.21,-1.17,0,*6A
1508986948.82,34353,12.31,74000.8,-0.59,-1.29,-1.29,0,*6E
1508986950.01,34354,12.31,74010.3,-0.57,-1.29,-1.29,0,*67
1508986951.18,34355,12.31,74006.5,-0.57,-0.61,-0.61,0,*66
1508986952.41,34356,12.31,74004.5,-0.57,-0.93,-0.85,0,*62
1508986953.64,34357,12.31,74010.3,-0.57,-1.09,-1.05,0,*68
1508986954.85,34358,12.31,74004.0,-0.55,-0.77,-0.77,0,*69
1508986956.11,34359,12.31,73998.5,-0.55,-1.13,-1.13,0,*68
1508986957.32,34360,12.25,73992.5,-0.55,-1.29,-1.29,0,*62
1508986958.53,34361,12.31,73992.3,-0.55,-1.25,-1.25,0,*63
1508986959.74,34362,12.31,74012.5,-0.55,-1.25,-1.25,0,*60
1508986960.96,34363,12.25,74004.5,-0.55,-1.17,-1.25,0,*60
1508986962.22,34364,12.31,74004.5,-0.55,-1.43,-1.39,0,*6B
1508986963.44,34365,12.25,73994.0,-0.55,-1.75,-1.67,0,*64
1508986964.65,34366,12.31,74002.3,-0.55,-1.63,-1.67,0,*60
1508986965.86,34367,12.31,74002.5,-0.55,-1.75,-1.75,0,*65
1508986967.1,34368,12.31,74000.5,-0.55,-1.87,-1.79,0,*6B
1508986968.37,34369,12.31,74002.8,-0.55,-1.43,-1.43,0,*6B
1508986969.58,34370,12.31,74008.8,-0.55,-1.51,-1.51,0,*63
1508986970.84,34371,12.31,74010.5,-0.55,-1.43,-1.43,0,*62
1508986972.06,34372,12.31,74008.8,-0.57,-1.55,-1.43,0,*64
1508986973.27,34373,12.31,74008.8,-0.57,-1.55,-1.43,0,*65
1508986974.51,34374,12.31,74004.0,-0.55,-1.51,-1.39,0,*69
1508986975.72,34375,12.25,74002.3,-0.55,-1.63,-1.63,0,*66
1508986976.9,34376,12.31,73982.0,-0.57,-1.59,-1.55,0,*6B
1508986978.14,34377,12.31,73984.8,-0.57,-1.35,-1.35,0,*66
1508986979.33,34378,12.31,73988.3,-0.57,-1.29,-1.33,0,*62
1508986980.54,34379,12.25,73992.8,-0.57,-1.35,-1.33,0,*6E
1508986981.75,34380,12.31,73994.0,-0.57,-1.35,-1.33,0,*68
1508986982.94,34381,12.31,73988.8,-0.57,-1.33,-1.33,0,*6F
1508986984.13,34382,12.31,73994.0,-0.57,-1.29,-1.29,0,*6C
1508986985.32,34383,12.25,74002.0,-0.57,-1.29,-1.33,0,*66
1508986986.53,34384,12.31,74004.0,-0.57,-1.35,-1.33,0,*6C
1508986987.72,34385,12.31,74008.5,-0.57,-1.33,-1.33,0,*6B
1508986988.93,34386,12.31,74014.8,-0.55,-1.29,-1.33,0,*61
1508986990.14,34387,12.31,74016.8,-0.55,-1.55,-1.51,0,*6F
1508986991.36,34388,12.31,74030.8,-0.55,-1.75,-1.67,0,*67
1508986992.57,34389,12.31,74026.5,-0.55,-1.75,-1.75,0,*65
1508986993.79,34390,12.31,74008.8,-0.55,-1.63,-1.67,0,*69
1508986995.0,34391,12.31,74002.8,-0.55,-1.67,-1.75,0,*6F
1508986996.19,34392,12.31,73992.8,-0.57,-2.15,-2.19,0,*61
1508986997.43,34393,12.31,74006.8,-0.57,-2.07,-2.07,0,*6C
1508986998.7,34394,12.31,74024.8,-0.59,-2.03,-2.03,0,*65
1508986999.91,34395,12.25,73994.8,-0.57,-0.85,-0.81,0,*6E
1508987001.13,34396,12.31,73978.3,-0.57,-1.17,-1.09,0,*66
1508987002.36,34397,12.31,73966.5,-0.57,-1.09,-1.09,0,*68
1508987003.55,34398,12.31,73972.3,-0.57,-1.21,-1.17,0,*62
1508987004.74,34399,12.31,73978.8,-0.57,-1.33,-1.29,0,*6D
1508987005.99,34400,12.31,73990.3,-0.57,-1.43,-1.43,0,*61
1508987007.17,34401,12.25,73984.8,-0.57,-1.67,-1.59,0,*6D
1508987008.38,34402,12.31,73988.0,-0.55,-1.63,-1.63,0,*61
1508987009.6,34403,12.31,73980.8,-0.55,-1.55,-1.67,0,*61
1508987010.83,34404,12.31,73990.5,-0.55,-1.55,-1.43,0,*60
1508987012.08,34405,12.25,73978.8,-0.57,-1.47,-1.47,0,*64
1508987013.32,34406,12.25,73976.3,-0.57,-1.47,-1.43,0,*63
1508987014.56,34407,12.31,73974.3,-0.57,-1.43,-1.35,0,*67
1508987015.8,34408,12.31,73964.8,-0.57,-1.43,-1.35,0,*68
1508987017.04,34409,12.31,73958.0,-0.57,-1.35,-1.35,0,*68
1508987018.23,34410,12.31,73960.8,-0.57,-1.33,-1.33,0,*60
1508987019.45,34411,12.31,73952.8,-0.55,-1.29,-1.29,0,*63
1508987020.66,34412,12.31,73966.8,-0.55,-1.29,-1.29,0,*60
1508987021.93,34413,12.31,73962.0,-0.55,-1.43,-1.39,0,*6C
1508987023.17,34414,12.31,73966.8,-0.55,-1.33,-1.39,0,*6C
1508987024.41,34415,12.31,73974.3,-0.55,-1.51,-1.43,0,*64
1508987025.62,34416,12.31,73978.8,-0.55,-1.51,-1.51,0,*64
1508987026.82,34417,12.31,73964.5,-0.57,-1.71,-1.71,0,*67
1508987028.06,34418,12.31,73966.3,-0.57,-1.83,-1.91,0,*6B
1508987029.3,34419,12.31,73984.3,-0.57,-1.47,-1.47,0,*69
1508987030.51,34420,12.31,73982.5,-0.57,-1.55,-1.47,0,*60
1508987031.76,34421,12.31,73998.5,-0.57,-1.83,-1.83,0,*62
1508987032.94,34422,12.31,73990.8,-0.57,-2.19,-2.23,0,*68
1508987034.19,34423,12.31,73992.0,-0.59,-2.55,-2.43,0,*69
1508987035.45,34424,12.31,73994.0,-0.59,-2.59,-2.59,0,*69
1508987036.72,34425,12.31,73996.5,-0.59,-2.55,-2.47,0,*6B
1508987037.96,34426,12.31,73998.8,-0.61,-2.59,-2.59,0,*60
1508987039.17,34427,12.31,73990.8,-0.63,-2.35,-2.35,0,*63
1508987040.39,34428,12.31,73986.8,-0.63,-2.35,-2.39,0,*60
1508987041.66,34429,12.31,73990.3,-0.63,-2.51,-2.51,0,*6D
1508987042.87,34430,12.31,73972.8,-0.63,-2.23,-2.23,0,*65
1508987044.06,34431,12.25,73988.0,-0.69,-2.27,-2.27,0,*6E
1508987045.27,34432,12.31,73952.0,-0.67,-2.15,-2.15,0,*63
1508987046.55,34433,12.31,73940.0,-0.67,-2.03,-1.99,0,*62
1508987047.73,34434,12.31,73968.5,-0.69,-1.59,-1.55,0,*67
1508987048.94,34435,12.31,73974.8,-0.67,-1.75,-1.75,0,*64
1508987050.18,34436,12.31,73978.0,-0.69,-1.83,-1.91,0,*6A
1508987051.42,34437,12.31,73962.3,-0.67,-1.79,-1.91,0,*60
1508987052.66,34438,12.31,73960.3,-0.69,-1.91,-1.83,0,*64
1508987053.88,34439,12.31,73972.3,-0.67,-1.79,-1.79,0,*68
1508987055.07,34440,12.31,73956.8,-0.69,-1.67,-1.71,0,*6F
1508987056.31,34441,12.31,73966.3,-0.67,-1.79,-1.87,0,*66
1508987057.52,34442,12.31,73960.3,-0.67,-1.51,-1.51,0,*64
1508987058.76,34443,12.31,73962.5,-0.67,-1.35,-1.29,0,*68
1508987060.04,34444,12.31,73972.0,-0.67,-1.39,-1.39,0,*62
1508987061.3,34445,12.31,73964.5,-0.63,-1.35,-1.35,0,*67
1508987062.57,34446,12.31,73964.8,-0.67,-1.39,-1.35,0,*6C
1508987063.81,34447,12.31,73976.3,-0.63,-1.35,-1.33,0,*63
1508987065.06,34448,12.31,73976.5,-0.63,-1.33,-1.35,0,*6C
1508987066.28,34449,12.31,73974.3,-0.63,-1.33,-1.33,0,*6B
1508987067.46,34450,12.31,73976.5,-0.61,-1.33,-1.25,0,*66
1508987068.68,34451,12.31,73984.3,-0.61,-1.35,-1.33,0,*66
1508987069.89,34452,12.31,73994.8,-0.63,-1.33,-1.25,0,*66
1508987071.08,34453,12.31,73994.8,-0.61,-1.33,-1.33,0,*62
1508987072.32,34454,12.31,74002.3,-0.61,-1.35,-1.35,0,*65
1508987073.51,34455,12.31,73998.3,-0.61,-1.25,-1.33,0,*63
1508987074.7,34456,12.31,74008.0,-0.61,-1.25,-1.21,0,*63
1508987075.88,34457,12.31,74010.3,-0.61,-1.25,-1.25,0,*66
1508987077.12,34458,12.31,74004.0,-0.61,-1.35,-1.35,0,*69
1508987078.31,34459,12.31,74012.8,-0.61,-1.33,-1.33,0,*68
1508987079.54,34460,12.31,74008.3,-0.59,-1.29,-1.21,0,*61
1508987080.73,34461,12.31,74016.3,-0.57,-1.29,-1.29,0,*66
1508987081.95,34462,12.31,74018.0,-0.59,-1.33,-1.33,0,*6B
1508987083.22,34463,12.25,74022.5,-0.59,-1.47,-1.43,0,*6E
1508987084.44,34464,12.31,74020.8,-0.59,-1.67,-1.67,0,*6D
1508987085.65,34465,12.25,74012.3,-0.59,-1.59,-1.59,0,*6C
1508987086.86,34466,12.31,74020.8,-0.59,-1.59,-1.59,0,*6F
1508987088.14,34467,12.31,74008.5,-0.59,-1.47,-1.47,0,*6E
1508987089.38,34468,12.31,74008.8,-0.59,-1.55,-1.43,0,*66
1508987090.59,34469,12.31,74004.8,-0.59,-1.59,-1.55,0,*6C
1508987091.81,34470,12.31,73996.3,-0.59,-1.71,-1.59,0,*62
1508987093.05,34471,12.31,74000.0,-0.59,-1.91,-1.79,0,*6F
1508987094.24,34472,12.31,74002.5,-0.61,-1.63,-1.71,0,*62
1508987095.43,34473,12.31,73988.0,-0.61,-1.59,-1.51,0,*68
1508987096.67,34474,12.31,73982.3,-0.61,-1.39,-1.47,0,*6E
1508987097.92,34475,12.31,73986.5,-0.61,-1.39,-1.35,0,*6A
1508987099.17,34476,12.25,74012.3,-0.61,-1.39,-1.35,0,*69
1508987100.36,34477,12.25,74002.0,-0.61,-1.25,-1.21,0,*60
1508987101.6,34478,12.31,73990.8,-0.61,-1.47,-1.35,0,*6E
1508987102.85,34479,12.31,74006.3,-0.61,-1.39,-1.35,0,*66
1508987104.12,34480,12.31,73992.0,-0.59,-1.43,-1.43,0,*67
1508987105.33,34481,12.25,73982.0,-0.59,-1.67,-1.55,0,*67
1508987106.52,34482,12.31,73990.5,-0.57,-1.67,-1.59,0,*66
1508987107.7,34483,12.31,73992.5,-0.57,-1.59,-1.59,0,*6A
1508987108.92,34484,12.31,73982.8,-0.59,-1.67,-1.71,0,*64
1508987110.11,34485,12.31,73986.0,-0.61,-1.75,-1.71,0,*6D
1508987111.3,34486,12.31,73974.0,-0.61,-1.51,-1.51,0,*6A
1508987112.54,34487,12.31,73982.5,-0.61,-1.39,-1.39,0,*6B
1508987113.76,34488,12.31,73978.5,-0.61,-1.51,-1.47,0,*63
1508987114.97,34489,12.31,73978.5,-0.63,-1.63,-1.51,0,*66
1508987116.19,34490,12.31,73986.3,-0.59,-1.55,-1.55,0,*66
1508987117.37,34491,12.31,73988.0,-0.61,-1.63,-1.63,0,*6C
1508987118.59,34492,12.31,73986.5,-0.61,-1.75,-1.83,0,*66
1508987119.8,34493,12.31,73980.8,-0.59,-2.19,-2.15,0,*69
1508987121.05,34494,12.31,73986.3,-0.61,-2.11,-2.11,0,*69
1508987122.29,34495,12.31,73990.5,-0.61,-2.07,-2.07,0,*68
1508987123.51,34496,12.31,73982.8,-0.63,-2.23,-2.23,0,*69
1508987124.69,34497,12.31,73976.5,-0.61,-2.35,-2.27,0,*69
1508987125.97,34498,12.31,73972.8,-0.63,-2.11,-2.07,0,*60
1508987127.18,34499,12.31,73970.0,-0.67,-2.15,-2.15,0,*62
1508987128.42,34500,12.31,73976.3,-0.67,-2.15,-2.11,0,*67
1508987129.61,34501,12.31,73984.8,-0.69,-2.23,-2.23,0,*6C
1508987130.85,34502,12.31,73980.5,-0.69,-2.67,-2.71,0,*68
1508987132.09,34503,12.31,73982.5,-0.69,-2.55,-2.55,0,*6E
1508987133.31,34504,12.31,73980.5,-0.69,-2.47,-2.43,0,*6D
1508987134.56,34505,12.31,73984.0,-0.71,-1.95,-1.95,0,*61
1508987135.76,34506,12.31,73988.5,-0.69,-1.67,-1.71,0,*6C
1508987136.95,34507,12.31,73988.3,-0.69,-1.67,-1.67,0,*6A
1508987138.16,34508,12.31,73992.3,-0.69,-1.79,-1.83,0,*60
1508987139.4,34509,12.31,73994.3,-0.69,-2.03,-2.03,0,*64
1508987140.59,34510,12.31,73990.0,-0.69,-2.19,-2.15,0,*60
1508987141.81,34511,12.25,73988.8,-0.69,-2.07,-2.15,0,*6E
1508987143.06,34512,12.31,73996.3,-0.71,-1.91,-1.95,0,*63
1508987144.29,34513,12.31,74000.8,-0.73,-1.91,-1.95,0,*60
1508987145.56,34514,12.31,74004.3,-0.71,-2.07,-2.07,0,*61
1508987146.78,34515,12.31,74004.8,-0.71,-2.31,-2.35,0,*64
1508987147.96,34516,12.31,73998.8,-0.73,-2.35,-2.27,0,*62
1508987149.14,34517,12.31,73996.8,-0.73,-2.23,-2.23,0,*60
1508987150.36,34518,12.31,73992.8,-0.71,-2.15,-2.19,0,*61
1508987151.63,34519,12.31,73990.5,-0.71,-2.07,-2.07,0,*6C
1508987152.87,34520,12.31,73988.3,-0.73,-2.07,-2.11,0,*63
1508987154.12,34521,12.25,73984.0,-0.71,-1.95,-1.95,0,*67
1508987155.31,34522,12.31,73984.0,-0.73,-1.75,-1.75,0,*66
1508987156.49,34523,12.31,73984.0,-0.73,-1.63,-1.63,0,*67
1508987157.75,34524,12.31,73982.5,-0.71,-1.83,-1.95,0,*65
1508987158.96,34525,12.31,73964.3,-0.73,-1.83,-1.75,0,*68
1508987160.17,34526,12.31,73970.3,-0.71,-1.67,-1.59,0,*6D
1508987161.36,34527,12.31,73976.8,-0.73,-1.71,-1.63,0,*60
1508987162.56,34528,12.31,73980.0,-0.73,-1.71,-1.63,0,*6F
1508987163.77,34529,12.31,74010.5,-0.71,-1.67,-1.59,0,*62
1508987165.03,34530,12.31,74006.3,-0.71,-1.47,-1.47,0,*67
1508987166.3,34531,12.31,74002.3,-0.71,-1.43,-1.43,0,*66
1508987167.57,34532,12.31,74016.3,-0.71,-1.43,-1.43,0,*65
1508987168.83,34533,12.31,73998.8,-0.71,-1.43,-1.47,0,*60
1508987170.04,34534,12.31,73962.8,-0.71,-1.67,-1.59,0,*6E
1508987171.22,34535,12.31,73972.3,-0.73,-1.63,-1.63,0,*60
1508987172.45,34536,12.25,73982.3,-0.71,-1.71,-1.67,0,*66
1508987173.71,34537,12.31,73966.5,-0.71,-1.47,-1.47,0,*60
1508987174.98,34538,12.31,73972.5,-0.67,-1.43,-1.43,0,*68
1508987176.25,34539,12.31,73970.0,-0.71,-1.39,-1.39,0,*6E
1508987177.5,34540,12.31,73968.3,-0.69,-1.39,-1.43,0,*64
1508987178.74,34541,12.31,73978.5,-0.69,-1.39,-1.43,0,*65
1508987179.99,34542,12.31,73982.0,-0.69,-1.47,-1.43,0,*6F
1508987181.26,34543,12.31,73980.3,-0.67,-1.39,-1.39,0,*64
1508987182.51,34544,12.31,73980.8,-0.69,-1.39,-1.39,0,*6D
1508987183.75,34545,12.31,73984.0,-0.67,-1.43,-1.55,0,*65
1508987185.01,34546,12.31,73988.0,-0.67,-1.91,-1.91,0,*61
1508987186.24,34547,12.31,73982.0,-0.69,-1.95,-1.95,0,*6E
1508987187.46,34548,12.31,73980.8,-0.67,-1.79,-1.79,0,*6F
1508987188.67,34549,12.25,73974.0,-0.69,-1.47,-1.55,0,*63
1508987189.92,34550,12.31,73978.0,-0.69,-1.43,-1.39,0,*65
1508987191.18,34551,12.31,73978.8,-0.67,-1.35,-1.35,0,*67
1508987192.46,34552,12.31,73988.3,-0.67,-1.39,-1.39,0,*64
1508987193.73,34553,12.31,73988.3,-0.67,-1.39,-1.35,0,*69
1508987195.01,34554,12.31,73994.3,-0.67,-1.39,-1.39,0,*62
1508987196.24,34555,12.31,73994.5,-0.67,-1.51,-1.43,0,*60
1508987197.45,34556,12.31,73998.3,-0.67,-1.51,-1.51,0,*60
1508987198.69,34557,12.31,74006.5,-0.67,-1.51,-1.43,0,*62
1508987199.91,34558,12.31,74014.0,-0.67,-1.63,-1.63,0,*6E
1508987201.13,34559,12.31,74010.8,-0.67,-1.75,-1.67,0,*6C
1508987202.34,34560,12.31,74008.5,-0.67,-1.67,-1.75,0,*66
1508987203.61,34561,12.31,74004.8,-0.67,-1.91,-1.99,0,*6C
1508987204.88,34562,12.31,73986.3,-0.67,-1.91,-1.91,0,*67
1508987206.14,34563,12.31,73976.8,-0.67,-1.87,-1.87,0,*66
1508987207.33,34564,12.31,73980.8,-0.69,-1.79,-1.79,0,*6F
1508987208.53,34565,12.31,73976.5,-0.69,-1.71,-1.71,0,*6E
1508987209.8,34566,12.31,73984.8,-0.67,-1.87,-1.91,0,*64
1508987211.0,34567,12.31,73990.0,-0.69,-1.71,-1.71,0,*6C
1508987212.21,34568,12.31,73984.3,-0.67,-1.67,-1.63,0,*69
1508987213.4,34569,12.31,73994.0,-0.69,-1.67,-1.67,0,*62
1508987214.6,34570,12.31,73990.0,-0.69,-1.71,-1.79,0,*62
1508987215.8,34571,12.31,73994.8,-0.69,-1.71,-1.67,0,*6C
1508987217.01,34572,12.31,74002.0,-0.67,-1.63,-1.63,0,*66
1508987218.23,34573,12.31,73988.0,-0.67,-1.75,-1.67,0,*64
1508987219.42,34574,12.31,73986.5,-0.69,-1.79,-1.79,0,*6E
1508987220.63,34575,12.31,73988.5,-0.69,-1.83,-1.79,0,*6A
1508987221.88,34576,12.31,73996.5,-0.69,-1.83,-1.91,0,*6F
1508987223.06,34577,12.31,73994.8,-0.69,-1.79,-1.79,0,*6D
1508987224.31,34578,12.31,73994.3,-0.69,-1.83,-1.83,0,*62
1508987225.54,34579,12.31,73998.0,-0.69,-1.91,-1.91,0,*63
1508987226.76,34580,12.25,73990.0,-0.69,-1.83,-1.79,0,*60
1508987228.0,34581,12.31,73994.3,-0.69,-1.83,-1.91,0,*67
1508987229.22,34582,12.31,73992.8,-0.69,-1.83,-1.71,0,*6A
1508987230.44,34583,12.31,74008.8,-0.71,-1.71,-1.79,0,*67
1508987231.65,34584,12.31,73996.0,-0.71,-1.67,-1.79,0,*67
1508987232.87,34585,12.31,73996.5,-0.71,-1.79,-1.79,0,*69
1508987234.1,34586,12.31,73988.0,-0.69,-1.95,-1.91,0,*67
1508987235.34,34587,12.31,73984.5,-0.69,-1.91,-1.91,0,*62
1508987236.61,34588,12.31,73974.3,-0.71,-1.83,-1.83,0,*64
1508987237.86,34589,12.31,73980.0,-0.71,-1.95,-1.95,0,*65
1508987239.12,34590,12.31,73980.0,-0.71,-1.91,-1.91,0,*6D
1508987240.31,34591,12.31,73968.5,-0.73,-2.31,-2.19,0,*64
1508987241.52,34592,12.31,73972.5,-0.73,-2.19,-2.11,0,*65
1508987242.76,34593,12.31,73962.3,-0.73,-2.07,-2.07,0,*6C
1508987244.01,34594,12.31,73962.3,-0.73,-2.07,-1.99,0,*6F
1508987245.25,34595,12.31,73962.3,-0.73,-1.99,-1.99,0,*6A
1508987246.47,34596,12.31,73972.0,-0.73,-2.19,-2.07,0,*66
1508987247.65,34597,12.25,73956.0,-0.73,-2.23,-2.23,0,*68
1508987248.84,34598,12.31,73972.0,-0.73,-2.23,-2.23,0,*67
1508987250.03,34599,12.31,73968.0,-0.73,-2.31,-2.23,0,*65
1508987251.25,34600,12.31,73966.8,-0.75,-2.31,-2.31,0,*63
1508987252.44,34601,12.25,73962.3,-0.77,-2.43,-2.43,0,*60
1508987253.66,34602,12.31,73974.3,-0.75,-2.23,-2.23,0,*61
1508987254.87,34603,12.31,73968.5,-0.75,-2.19,-2.19,0,*60
1508987256.06,34604,12.31,73962.0,-0.77,-2.43,-2.39,0,*68
1508987257.24,34605,12.31,73964.8,-0.77,-2.27,-2.27,0,*64
1508987258.52,34606,12.31,73968.8,-0.75,-1.99,-1.99,0,*65
1508987259.78,34607,12.31,73962.8,-0.75,-1.95,-1.95,0,*64
1508987260.97,34608,12.31,73962.0,-0.77,-1.67,-1.67,0,*69
1508987262.16,34609,12.31,73960.8,-0.77,-1.67,-1.67,0,*68
1508987263.35,34610,12.31,73964.5,-0.77,-1.55,-1.55,0,*60
1508987264.61,34611,12.31,73952.0,-0.75,-1.43,-1.43,0,*63
1508987265.86,34612,12.25,73954.3,-0.75,-1.47,-1.51,0,*67
1508987267.07,34613,12.31,73964.0,-0.75,-1.51,-1.51,0,*61
1508987268.34,34614,12.31,73964.0,-0.75,-1.43,-1.43,0,*66
1508987269.61,34615,12.31,73966.8,-0.75,-1.43,-1.43,0,*67
1508987270.88,34616,12.31,73968.3,-0.75,-1.47,-1.47,0,*64
1508987272.09,34617,12.31,73972.5,-0.75,-1.63,-1.51,0,*64
1508987273.33,34618,12.31,73974.5,-0.73,-1.95,-1.83,0,*6B
1508987274.56,34619,12.31,73978.8,-0.73,-1.99,-1.95,0,*61
1508987275.81,34620,12.31,73976.0,-0.73,-2.11,-2.11,0,*67
1508987277.05,34621,12.31,73956.0,-0.73,-2.51,-2.51,0,*66
1508987278.29,34622,12.31,73948.3,-0.75,-2.19,-2.11,0,*6B
1508987279.53,34623,12.31,73968.0,-0.75,-1.83,-1.75,0,*6B
1508987280.74,34624,12.31,73976.3,-0.75,-1.59,-1.59,0,*65
1508987281.98,34625,12.31,73970.0,-0.75,-1.51,-1.47,0,*63
1508987283.25,34626,12.31,73970.3,-0.75,-1.43,-1.35,0,*66
1508987284.43,34627,12.31,73976.8,-0.77,-1.63,-1.63,0,*64
1508987285.65,34628,12.31,73944.3,-0.75,-1.51,-1.51,0,*69
1508987286.86,34629,12.31,73938.0,-0.75,-1.51,-1.51,0,*68
1508987288.08,34630,12.31,73968.3,-0.75,-1.75,-1.71,0,*64
1508987289.26,34631,12.31,73962.5,-0.73,-1.59,-1.51,0,*6F
1508987290.5,34632,12.31,73964.0,-0.73,-1.83,-1.83,0,*64
1508987291.69,34633,12.31,73976.8,-0.73,-1.75,-1.71,0,*61
1508987292.93,34634,12.25,73970.0,-0.73,-1.95,-1.99,0,*6E
1508987294.17,34635,12.25,73970.8,-0.73,-2.07,-2.07,0,*63
1508987295.44,34636,12.31,73974.8,-0.75,-1.83,-1.83,0,*66
1508987296.68,34637,12.31,73950.8,-0.77,-2.11,-2.03,0,*66
1508987297.9,34638,12.31,73968.0,-0.75,-1.63,-1.71,0,*6B
1508987299.11,34639,12.31,73972.5,-0.75,-1.51,-1.51,0,*69
1508987300.32,34640,12.31,73966.8,-0.75,-1.59,-1.59,0,*67
1508987301.51,34641,12.31,73966.5,-0.73,-1.71,-1.63,0,*63
1508987302.7,34642,12.31,73978.5,-0.73,-1.63,-1.71,0,*60
1508987303.93,34643,12.31,73984.0,-0.75,-1.71,-1.63,0,*67
1508987305.17,34644,12.31,73974.0,-0.75,-1.83,-1.75,0,*6A
1508987306.4,34645,12.31,73976.8,-0.73,-1.95,-1.95,0,*64